Location: Geyikbay?r?
(36.8756°N, 30.4583°E)
Time: 00:49:33
(UTC+00:00)

Lacrosse 5 - Pass Details

Date: 05 August 2024
Orbit: 714 x 724 km, 57.0° (Epoch: 09 March)

Event Time Altitude Azimuth Distance (km) Brightness Sun altitude
Rises 18:13:10 0° 324° (NW) 3,119 6.6 -13.7°
Reaches altitude 10° 18:15:41 10° 331° (NNW) 2,198 5.4 -14.1°
Maximum altitude 18:20:28 41° 42° (NE) 1,026 2.6 -14.9°
Enters shadow 18:23:16 22° 101° (E) 1,536 3.0 -15.4°
